Location: Cueva de Ratón
(10.1013°N, 67.6606°W)
Time: 08:58:22
(UTC+00:00)

GPS 2-17 Rocket1 - Pass Details

Date: 02 December 2023
Orbit: 562 x 642 km, 20.3° (Epoch: 28 February)

Event Time Altitude Azimuth Distance (km) Brightness Sun altitude
Rises 22:48:32 0° 291° (WNW) 2,931 7.3 -10.3°
Reaches altitude 10° 22:50:55 10° 294° (WNW) 2,024 6.4 -10.8°
Maximum altitude 22:55:41 71° 17° (NNE) 676 3.1 -11.9°
Enters shadow 22:59:40 14° 100° (E) 1,738 4.8 -12.9°
